Regional Weather Roundup
Issued by NWS State College, PA

Home | Current Version | Previous Version | Graphics & Text | Print | Product List | Glossary Off
Versions: 1 2 3 4 5 6 7 8 9 10 11 12 13 14 15 16 17 18 19 20 21 22 23 24 25 26 27 28 29 30 31 32 33 34 35 36 37 38 39 40 41 42 43 44 45 46 47 48 49 50

000
ASUS41 KCTP 210703
RWRCTP

REGIONAL WEATHER ROUNDUP
NATIONAL WEATHER SERVICE STATE COLLEGE PA
300 AM EDT SAT APR 21 2018

Note: "fair" indicates few or no clouds below 12,000 feet with no
significant weather and/or obstructions to visibility.

* = STATION THAT DOES NOT REPORT PRECIPITATION /E.G. RAIN...SNOW...ETC/
    THUNDER OR FOG.

PAZ002>004-007>009-013>016-020>023-029>032-210800-
WESTERN PENNSYLVANIA

CITY           SKY/WX    TMP DP  RH WIND       PRES   REMARKS
ERIE           FAIR      30  24  78 CALM      30.45F
MEADVILLE      FAIR      31  22  69 E3        30.42F
FRANKLIN*      FAIR      30  21  69 CALM      30.42S
NEW CASTLE     FAIR      28  23  81 CALM      30.45S
BEAVER COUNTY  NOT AVBL
BUTLER*        FAIR      30  23  75 CALM      30.44S
PITTSBURGH INT FAIR      32  23  69 S3        30.42F
PITTSBURGH     FAIR      36  22  56 N3        30.42F
INDIANA*       CLEAR     28  25  86 CALM      30.46S
LATROBE        FAIR      32  25  74 CALM      30.44F
WASHINGTON CO* FAIR      30  24  78 CALM      30.46F
$$

PAZ004>006-010>012-017>019-024>028-033>037-041-042-045-046-049>053-210800-
CENTRAL PENNSYLVANIA

CITY           SKY/WX    TMP DP  RH WIND       PRES   REMARKS
BRADFORD       FAIR      26  21  81 CALM      30.38F
DUBOIS         FAIR      32  22  66 W5        30.40R
CLEARFIELD     FAIR      28  22  78 CALM      30.41S
JOHNSTOWN      FAIR      34  21  59 CALM      30.38S
ALTOONA        FAIR      33  22  63 CALM      30.41S
STATE COLLEGE  FAIR      37  24  59 CALM      30.41S
WILLIAMSPORT   FAIR      32  25  75 CALM      30.43R
SELINSGROVE    FAIR      30  25  81 CALM      30.43S
FT INDIANTOWN  FAIR      39  25  55 N10       30.40F
CAPITAL CITY   FAIR      36  26  67 SW3       30.43S
HARRISBURG     FAIR      35  28  75 N3        30.42S
YORK           FAIR      28  26  92 CALM      30.42S
$$

PAZ038>040-043-044-047-048-054-055-060>062-067>071-210800-
EASTERN PENNSYLVANIA

CITY           SKY/WX    TMP DP  RH WIND       PRES   REMARKS
SCRANTON       FAIR      29  24  82 CALM      30.39S
MOUNT POCONO   FAIR      30  23  75 NW14      30.32S
ALLENTOWN      FAIR      32  24  72 W6        30.40S
QUAKERTOWN*    SUNNY     30  25  80 CALM      30.40S
READING        FAIR      35  26  69 W5        30.41S
LANCASTER      FAIR      35  25  66 W3        30.42S
COATESVILLE    FAIR      36  23  60 CALM      30.42R
POTTSTOWN      FAIR      31  24  75 CALM      30.42S
BLUE BELL      FAIR      32  28  86 CALM      30.42R
DOYLESTOWN     FAIR      34  25  69 CALM      30.39S
WILLOW GROVE   NOT AVBL
NORTH PHILA    FAIR      37  25  61 W3        30.42S
PHILADELPHIA   FAIR      39  24  55 CALM      30.42S
$$



USA.gov is the U.S. government's official web portal to all federal, state and local government web resources and services.